Regional Weather Roundup
Issued by NWS

Home | Current Version | Previous Version | Text Only | Print | Product List | Glossary On
Versions: 1 2 3 4 5 6 7 8 9 10 11 12 13 14 15 16 17 18 19 20 21 22 23 24 25 26 27 28 29 30 31 32 33 34 35 36 37 38 39 40 41 42 43 44 45 46 47 48 49 50
000
ASUS43 KOAX 050910
RWRNE

WEATHER ROUNDUP FOR NEBRASKA
NATIONAL WEATHER SERVICE OMAHA NE
400 AM CDT THU MAY 05 2016

NOTES: SATELLITE DATA IS BEING USED TO AUGMENT CLOUD COVER ABOVE
       12000 FEET.
       "FAIR" INDICATES FEW OR NO CLOUDS BELOW 12,000 FEET WITH NO
       SIGNIFICANT WEATHER AND/OR OBSTRUCTIONS TO VISIBILITY.

  * THESE STATIONS DO NOT REPORT WEATHER SUCH AS RAIN...SNOW OR FOG.

NEZ001>004-019>022-054>056-051000-
NEBRASKA PANHANDLE

CITY           SKY/WX    TMP DP  RH WIND       PRES   REMARKS
SCOTTSBLUFF    CLEAR     49  40  71 E8        30.07F
ALLIANCE       CLEAR     45  40  82 S5        30.06F
CHADRON        CLEAR     47  41  80 VRB3      30.01F
KIMBALL        CLEAR     47  40  78 S5        30.11F
SIDNEY         CLEAR     47  40  76 SW12      30.10F
$$

NEZ057>060-069>072-079>082-051000-
SOUTHWEST NEBRASKA

CITY           SKY/WX    TMP DP  RH WIND       PRES   REMARKS
NORTH PLATTE   CLEAR     41  37  86 CALM      30.09S
IMPERIAL       CLEAR     49  42  77 CALM      30.09F
LEXINGTON      CLEAR     42  38  88 CALM      30.10R
MCCOOK         CLEAR     47  40  76 CALM      30.09S
OGALLALA       PTCLDY    48  39  70 W5        30.09S
$$

NEZ005>010-023>029-035>040-094-051000-
NORTH CENTRAL NEBRASKA

CITY           SKY/WX    TMP DP  RH WIND       PRES   REMARKS
VALENTINE      CLEAR     48  37  65 W3        30.06F
AINSWORTH      CLEAR     43  37  78 S6        30.07S
BROKEN BOW     PTCLDY    39  36  89 CALM      30.08S
O`NEILL        CLEAR     47  46  96 SW3       30.06S
ORD            CLEAR     38  36  92 W3        30.07R
THEDFORD       CLEAR     45  38  77 CALM      30.09S
$$

NEZ041-046>049-061>064-073>077-083>087-051000-
SOUTH CENTRAL NEBRASKA

CITY           SKY/WX    TMP DP  RH WIND       PRES   REMARKS
GRAND ISLAND   CLEAR     43  36  76 W3        30.08R
AURORA         PTCLDY    43  35  72 W3        30.07R
HASTINGS       CLEAR     45  37  73 W5        30.07S
HEBRON         CLEAR     43  37  79 CALM      30.06S
HOLDREGE       CLEAR     44  37  76 CALM      30.09S
KEARNEY *      PTCLDY    45  37  76 W7        30.09S
YORK           CLEAR     41  37  87 CALM      30.06S
$$

NEZ011>018-030>034-042>045-051000-
NORTHEAST NEBRASKA

CITY           SKY/WX    TMP DP  RH WIND       PRES   REMARKS
NORFOLK        CLEAR     44  35  70 CALM      30.04S
ALBION         CLEAR     39  35  85 NW3       30.06S
BLAIR          CLEAR     49  38  66 NW6       30.03R
COLUMBUS *     CLEAR     41  30  65 NW3       30.05S
FREMONT        CLEAR     43  38  84 W5        30.04S
TEKAMAH        CLEAR     46  39  76 CALM      30.02S
WAYNE          CLEAR     38  35  90 CALM      30.05R
$$

NEZ050>053-065>068-078-088>093-051000-
SOUTHEAST NEBRASKA

CITY           SKY/WX    TMP DP  RH WIND       PRES   REMARKS
LINCOLN        CLEAR     45  39  79 N3        30.05S
OMAHA EPPLEY   CLEAR     47  42  83 N3        30.02S
BEATRICE       CLEAR     42  39  89 CALM      30.05R
FALLS CITY     CLEAR     44  39  82 W5        30.01S
NEBRASKA CITY  CLEAR     50  37  61 NW7       30.02S
PLATTSMOUTH    CLEAR     50  41  70 W7        30.02S
$$

NEZ044-045-051>053-067-051000-
OMAHA AREA

CITY           SKY/WX    TMP DP  RH WIND       PRES   REMARKS
OMAHA EPPLEY   CLEAR     47  42  83 N3        30.02S
BLAIR          CLEAR     49  38  66 NW6       30.03R
FREMONT        CLEAR     43  38  84 W5        30.04S
MILLARD        CLEAR     46  42  86 NW3       30.03S
OFFUTT AFB     CLEAR     46  42  86 NW2       30.01S
PLATTSMOUTH    CLEAR     50  41  70 W7        30.02S
WAHOO          FAIR      44  38  79 NW3       30.04R
$$




USA.gov is the U.S. government's official web portal to all federal, state and local government web resources and services.